When you browse on this site, cookies collect data to enhance your experience and personalize the content and advertising you see.
Visit our Privacy Policy to learn more. By continuing to use the site, you agree to this use of cookies and data.
  • In Netherlands
  • List of Countries
  • For 7 days
  • Water Temperature
  • Satellite Maps
  • Weather Map
  • Weather Widgets
  • user-avatar
    Login

    Hourly Weather Ozorków

    Today, 25 April, Thursday

    Time Temperature Precipitation Wind Pressure Humidity
    00:00 +14°C° 0 mm 5 mps 749 mmHg 73%
    01:00 +14°C° 0 mm 5 mps 749 mmHg 73%
    02:00 +14°C° 0 mm 5 mps 749 mmHg 74%
    03:00 +14°C° 0 mm 5 mps 749 mmHg 76%
    04:00 +13°C° 0 mm 5 mps 748 mmHg 77%
    05:00 +14°C° 0 mm 5 mps 748 mmHg 74%
    06:00 +15°C° 0 mm 5 mps 749 mmHg 72%
    07:00 +17°C° 0 mm 6 mps 749 mmHg 69%
    08:00 +19°C° 0 mm 5 mps 749 mmHg 64%
    09:00 +21°C° 0 mm 5 mps 749 mmHg 60%
    10:00 +22°C° 0 mm 5 mps 749 mmHg 55%
    11:00 +23°C° 0 mm 5 mps 749 mmHg 53%
    12:00 +23°C° 0 mm 4 mps 749 mmHg 51%
    13:00 +25°C° 0 mm 4 mps 748 mmHg 49%
    14:00 +25°C° 0 mm 3 mps 748 mmHg 50%
    15:00 +25°C° 0 mm 3 mps 748 mmHg 50%
    16:00 +25°C° 0 mm 2 mps 748 mmHg 51%
    17:00 +23°C° 0 mm 2 mps 748 mmHg 55%
    18:00 +22°C° 0 mm 1 mps 748 mmHg 59%
    19:00 +20°C° 0 mm 1 mps 748 mmHg 64%
    20:00 +20°C° 0 mm 1 mps 748 mmHg 66%
    21:00 +18°C° 0 mm 2 mps 748 mmHg 68%
    22:00 +18°C° 0 mm 2 mps 748 mmHg 71%
    23:00 +17°C° 0 mm 2 mps 748 mmHg 73%

    Tomorrow, 26 April, Friday

    Time Temperature Precipitation Wind Pressure Humidity
    00:00 +17°C° 0 mm 2 mps 748 mmHg 75%
    01:00 +16°C° 0 mm 2 mps 748 mmHg 77%
    02:00 +16°C° 0 mm 2 mps 748 mmHg 77%
    03:00 +14°C° 0 mm 3 mps 747 mmHg 77%
    04:00 +14°C° 0 mm 3 mps 747 mmHg 77%
    05:00 +16°C° 0 mm 3 mps 747 mmHg 72%
    06:00 +18°C° 0 mm 4 mps 746 mmHg 68%
    07:00 +19°C° 0 mm 4 mps 746 mmHg 64%
    08:00 +20°C° 0 mm 4 mps 746 mmHg 59%
    09:00 +22°C° 0 mm 4 mps 745 mmHg 54%
    10:00 +25°C° 0 mm 5 mps 745 mmHg 49%
    11:00 +25°C° 0 mm 4 mps 745 mmHg 47%
    12:00 +26°C° 0 mm 4 mps 745 mmHg 45%
    13:00 +27°C° 0 mm 4 mps 744 mmHg 43%
    14:00 +27°C° 0 mm 4 mps 744 mmHg 43%
    15:00 +27°C° 0 mm 4 mps 743 mmHg 43%
    16:00 +27°C° 0 mm 4 mps 743 mmHg 43%
    17:00 +25°C° 0 mm 3 mps 743 mmHg 49%
    18:00 +24°C° 0 mm 2 mps 743 mmHg 54%
    19:00 +21°C° 0 mm 2 mps 743 mmHg 59%
    20:00 +20°C° 0 mm 2 mps 743 mmHg 60%
    21:00 +20°C° 0 mm 3 mps 743 mmHg 61%
    22:00 +19°C° 0 mm 3 mps 743 mmHg 62%
    23:00 +18°C° 0 mm 4 mps 743 mmHg 68%

    Day after tomorrow, 27 April, Saturday

    Time Temperature Precipitation Wind Pressure Humidity
    00:00 +18°C° 0 mm 4 mps 743 mmHg 74%
    01:00 +16°C° 0 mm 5 mps 743 mmHg 80%
    02:00 +15°C° 0.1 mm 6 mps 744 mmHg 82%
    03:00 +15°C° 0.1 mm 6 mps 744 mmHg 85%
    04:00 +14°C° 0.1 mm 7 mps 745 mmHg 88%
    05:00 +14°C° 0.2 mm 7 mps 745 mmHg 87%
    06:00 +12°C° 0.2 mm 7 mps 746 mmHg 87%
    07:00 +11°C° 0.2 mm 6 mps 746 mmHg 86%
    08:00 +11°C° 0 mm 6 mps 746 mmHg 84%
    09:00 +13°C° 0 mm 6 mps 747 mmHg 81%
    10:00 +13°C° 0 mm 6 mps 747 mmHg 79%
    11:00 +13°C° 0 mm 6 mps 747 mmHg 76%
    12:00 +14°C° 0 mm 5 mps 747 mmHg 74%
    13:00 +14°C° 0 mm 5 mps 747 mmHg 71%
    14:00 +15°C° 0 mm 4 mps 747 mmHg 69%
    15:00 +15°C° 0 mm 4 mps 747 mmHg 66%
    16:00 +15°C° 0 mm 4 mps 747 mmHg 64%
    17:00 +14°C° 0 mm 3 mps 747 mmHg 67%
    18:00 +15°C° 0 mm 2 mps 747 mmHg 70%
    19:00 +14°C° 0 mm 1 mps 747 mmHg 73%
    20:00 +14°C° 0.1 mm 1 mps 747 mmHg 75%
    21:00 +13°C° 0.1 mm 1 mps 747 mmHg 76%
    22:00 +13°C° 0.1 mm 1 mps 748 mmHg 77%
    23:00 +13°C° 0.2 mm 1 mps 748 mmHg 79%

    28 April, Sunday

    Time Temperature Precipitation Wind Pressure Humidity
    00:00 +13°C° 0.2 mm 1 mps 748 mmHg 81%
    01:00 +12°C° 0.2 mm 1 mps 748 mmHg 82%
    02:00 +12°C° 0.1 mm 2 mps 748 mmHg 83%
    03:00 +12°C° 0.1 mm 2 mps 748 mmHg 83%
    04:00 +12°C° 0.1 mm 2 mps 748 mmHg 84%
    05:00 +12°C° 0.1 mm 2 mps 749 mmHg 83%
    06:00 +11°C° 0.1 mm 3 mps 749 mmHg 82%
    07:00 +12°C° 0.1 mm 3 mps 749 mmHg 81%
    08:00 +12°C° 0.1 mm 3 mps 749 mmHg 80%
    09:00 +13°C° 0.1 mm 4 mps 750 mmHg 78%
    10:00 +14°C° 0.1 mm 4 mps 750 mmHg 77%
    11:00 +14°C° 0.4 mm 4 mps 750 mmHg 75%
    12:00 +14°C° 0.4 mm 4 mps 750 mmHg 74%
    13:00 +14°C° 0.4 mm 4 mps 750 mmHg 73%
    14:00 +14°C° 0.8 mm 4 mps 750 mmHg 76%
    15:00 +13°C° 0.8 mm 4 mps 750 mmHg 80%
    16:00 +12°C° 0.8 mm 4 mps 750 mmHg 83%
    17:00 +12°C° 0.5 mm 4 mps 750 mmHg 84%
    18:00 +11°C° 0.5 mm 4 mps 750 mmHg 86%
    19:00 +10°C° 0.5 mm 4 mps 750 mmHg 87%
    20:00 +10°C° 0.3 mm 4 mps 750 mmHg 88%
    21:00 +10°C° 0.3 mm 4 mps 750 mmHg 88%
    22:00 +10°C° 0.3 mm 4 mps 750 mmHg 89%
    23:00 +8°C° 0.3 mm 4 mps 750 mmHg 90%

    29 April, Monday

    Time Temperature Precipitation Wind Pressure Humidity
    00:00 +8°C° 0.3 mm 4 mps 749 mmHg 91%
    01:00 +8°C° 0.3 mm 4 mps 749 mmHg 92%
    02:00 +8°C° 0.8 mm 4 mps 749 mmHg 93%
    03:00 +8°C° 0.8 mm 4 mps 749 mmHg 94%
    04:00 +8°C° 0.8 mm 4 mps 749 mmHg 94%
    05:00 +8°C° 2.3 mm 4 mps 749 mmHg 95%
    06:00 +8°C° 2.3 mm 4 mps 749 mmHg 95%
    07:00 +9°C° 2.3 mm 3 mps 749 mmHg 96%
    08:00 +10°C° 0.6 mm 4 mps 749 mmHg 94%
    09:00 +10°C° 0.6 mm 4 mps 749 mmHg 93%
    10:00 +9°C° 0.6 mm 5 mps 749 mmHg 91%
    11:00 +9°C° 0.4 mm 5 mps 749 mmHg 91%
    12:00 +8°C° 0.4 mm 6 mps 749 mmHg 90%
    13:00 +8°C° 0.4 mm 6 mps 749 mmHg 90%
    14:00 +8°C° 0.9 mm 5 mps 749 mmHg 89%
    15:00 +8°C° 0.9 mm 5 mps 749 mmHg 89%
    16:00 +8°C° 0.9 mm 4 mps 749 mmHg 88%
    17:00 +8°C° 0.1 mm 4 mps 749 mmHg 88%
    18:00 +9°C° 0.1 mm 3 mps 750 mmHg 88%
    19:00 +9°C° 0.1 mm 3 mps 750 mmHg 88%
    20:00 +9°C° 0 mm 3 mps 750 mmHg 88%
    21:00 +8°C° 0 mm 3 mps 750 mmHg 89%
    22:00 +8°C° 0 mm 3 mps 750 mmHg 89%
    23:00 +7°C° 0 mm 3 mps 750 mmHg 87%

    30 April, Tuesday

    Time Temperature Precipitation Wind Pressure Humidity
    00:00 +5°C° 0 mm 4 mps 750 mmHg 85%
    01:00 +5°C° 0 mm 4 mps 750 mmHg 83%
    02:00 +4°C° 0 mm 4 mps 751 mmHg 83%
    03:00 +4°C° 0 mm 4 mps 751 mmHg 84%
    04:00 +3°C° 0 mm 4 mps 751 mmHg 84%
    05:00 +4°C° 0 mm 4 mps 751 mmHg 81%
    06:00 +5°C° 0 mm 5 mps 751 mmHg 77%
    07:00 +6°C° 0 mm 5 mps 751 mmHg 74%
    08:00 +8°C° 0 mm 6 mps 751 mmHg 68%
    09:00 +9°C° 0 mm 6 mps 751 mmHg 61%
    10:00 +10°C° 0 mm 6 mps 751 mmHg 54%
    11:00 +11°C° 0 mm 6 mps 751 mmHg 53%
    12:00 +13°C° 0 mm 6 mps 751 mmHg 51%
    13:00 +14°C° 0 mm 6 mps 751 mmHg 50%
    14:00 +13°C° 0 mm 6 mps 751 mmHg 51%
    15:00 +13°C° 0 mm 5 mps 750 mmHg 53%
    16:00 +13°C° 0 mm 5 mps 750 mmHg 54%
    17:00 +12°C° 0 mm 4 mps 750 mmHg 57%
    18:00 +11°C° 0 mm 4 mps 750 mmHg 60%
    19:00 +11°C° 0 mm 3 mps 750 mmHg 63%
    20:00 +10°C° 0 mm 3 mps 751 mmHg 67%
    21:00 +8°C° 0 mm 3 mps 751 mmHg 71%
    22:00 +7°C° 0 mm 3 mps 751 mmHg 75%
    23:00 +7°C° 0 mm 3 mps 751 mmHg 74%
    Show more